Date String (YYYY-MM-DD hh:mm:ss) UTC,Instrument flags,Ambient pressure (hPa),Sample flow (lpm),Bypass flow (lpm),Sample temperature (°C),Ambient temperature (°C),ASC tube jacket temperature (°C),LED temperature (°C),Box temperature (°C),Sample RH (%),Span deviation,Mass concentration (μg/m³),Mass concentration (μg/m³),Mass concentration (μg/m³)
DateTimeUTC,F1_M11,P_M11,Q1_M11,Q2_M11,T1_M11,T2_M11,T3_M11,T4_M11,T5_M11,U1_M11,ZSPAN_M11,X0_M11,X2_M11,X1_M11
2021-12-25 10:00:00,,0814.0,4.99,0.00,22.3,21.7,00.0,31.4,24.0,15.6,0000.0,0003.54,0000.30,0000.19
2021-12-25 10:01:00,,0814.1,5.00,0.00,22.3,21.6,00.0,31.3,23.9,15.7,0000.0,0003.26,0000.30,0000.19
2021-12-25 10:02:00,,0814.1,5.01,0.00,22.2,21.6,00.0,31.3,23.9,15.8,0000.0,0002.37,0000.33,0000.19
2021-12-25 10:03:00,,0814.2,4.99,0.00,22.2,21.5,00.0,31.3,23.8,15.8,0000.0,0002.35,0000.32,0000.19
2021-12-25 10:04:00,,0814.1,5.02,0.00,22.2,21.5,00.0,31.3,23.8,16.0,0000.0,0002.36,0000.33,0000.19
2021-12-25 10:05:00,,0814.3,4.98,0.00,22.2,21.4,00.0,31.3,23.8,16.0,0000.0,0002.36,0000.32,0000.19
2021-12-25 10:06:00,,0814.2,5.01,0.00,22.1,21.4,00.0,31.3,23.8,16.0,0000.0,0002.37,0000.32,0000.19
2021-12-25 10:07:00,,0814.2,5.01,0.00,22.1,21.4,00.0,31.3,23.7,16.2,0000.0,0002.28,0000.33,0000.19
2021-12-25 10:08:00,,0814.3,5.00,0.00,22.1,21.3,00.0,31.2,23.7,16.2,0000.0,0002.29,0000.34,0000.19
2021-12-25 10:09:00,,0814.2,4.99,0.00,22.1,21.3,00.0,31.2,23.7,16.2,0000.0,0002.34,0000.34,0000.19
2021-12-25 10:10:00,,0814.3,5.01,0.00,22.1,21.4,00.0,31.2,23.7,16.2,0000.0,0002.23,0000.34,0000.18
2021-12-25 10:11:00,,0814.4,5.01,0.00,22.1,21.4,00.0,31.2,23.7,16.2,0000.0,0000.59,0000.31,0000.18
2021-12-25 10:12:00,,0814.5,4.99,0.00,22.0,21.3,00.0,31.2,23.7,16.2,0000.0,0000.61,0000.32,0000.18
2021-12-25 10:13:00,,0814.3,4.99,0.00,22.0,21.3,00.0,31.2,23.7,16.2,0000.0,0000.55,0000.29,0000.18
2021-12-25 10:14:00,,0814.2,5.01,0.00,22.0,21.3,00.0,31.1,23.7,16.3,0000.0,0000.54,0000.29,0000.18
2021-12-25 10:15:00,,0814.2,4.99,0.00,22.0,21.3,00.0,31.1,23.6,16.4,0000.0,0000.53,0000.29,0000.18
2021-12-25 10:16:00,,0814.2,5.00,0.00,22.0,21.3,00.0,31.1,23.6,16.5,0000.0,0000.53,0000.29,0000.19
2021-12-25 10:17:00,,0814.3,5.01,0.00,21.9,21.2,00.0,31.1,23.6,16.5,0000.0,0000.58,0000.29,0000.18
2021-12-25 10:18:00,,0814.2,5.00,0.00,21.9,21.2,00.0,31.1,23.6,16.6,0000.0,0000.64,0000.30,0000.18
2021-12-25 10:19:00,,0814.1,4.99,0.00,21.9,21.2,00.0,31.1,23.5,16.7,0000.0,0000.64,0000.29,0000.18
2021-12-25 10:20:00,,0814.0,5.00,0.00,21.9,21.2,00.0,31.0,23.5,16.7,0000.0,0000.64,0000.30,0000.18
2021-12-25 10:21:00,,0814.0,5.00,0.00,21.9,21.1,00.0,31.0,23.4,16.7,0000.0,0000.74,0000.32,0000.19
2021-12-25 10:22:00,,0814.3,4.99,0.00,21.8,21.1,00.0,31.0,23.4,16.8,0000.0,0000.82,0000.35,0000.19
2021-12-25 10:23:00,,0814.2,5.01,0.00,21.8,21.1,00.0,31.0,23.4,16.8,0000.0,0000.82,0000.36,0000.19
2021-12-25 10:24:00,,0814.4,5.00,0.00,21.8,21.1,00.0,31.0,23.4,16.9,0000.0,0000.88,0000.38,0000.19
2021-12-25 10:25:00,,0814.5,5.00,0.00,21.8,21.1,00.0,31.0,23.4,17.0,0000.0,0000.96,0000.41,0000.20
2021-12-25 10:26:00,,0814.2,5.00,0.00,21.8,21.1,00.0,31.0,23.4,17.1,0000.0,0001.04,0000.43,0000.20
2021-12-25 10:27:00,,0814.4,5.00,0.00,21.8,21.1,00.0,30.9,23.5,17.2,0000.0,0001.13,0000.45,0000.20
2021-12-25 10:28:00,,0814.2,5.00,0.00,21.8,21.1,00.0,30.9,23.5,17.1,0000.0,0001.07,0000.45,0000.21
2021-12-25 10:29:00,,0814.3,5.00,0.00,21.8,21.2,00.0,30.9,23.6,17.1,0000.0,0000.98,0000.43,0000.21
2021-12-25 10:30:00,,0814.2,4.99,0.00,21.9,21.2,00.0,30.9,23.6,16.9,0000.0,0000.96,0000.42,0000.22
2021-12-25 10:31:00,,0814.1,5.00,0.00,21.9,21.3,00.0,30.9,23.6,16.8,0000.0,0000.96,0000.42,0000.21
2021-12-25 10:32:00,,0814.0,5.01,0.00,21.9,21.3,00.0,30.9,23.7,16.8,0000.0,0000.80,0000.38,0000.20
2021-12-25 10:33:00,,0814.0,4.99,0.00,21.9,21.3,00.0,30.9,23.7,16.8,0000.0,0000.74,0000.36,0000.21
2021-12-25 10:34:00,,0814.0,5.00,0.00,22.0,21.4,00.0,30.9,23.7,16.5,0000.0,0000.73,0000.36,0000.21
2021-12-25 10:35:00,,0814.1,5.00,0.00,22.0,21.4,00.0,30.9,23.7,16.5,0000.0,0000.71,0000.35,0000.21
2021-12-25 10:36:00,,0814.0,5.01,0.00,22.0,21.4,00.0,30.9,23.7,16.5,0000.0,0000.66,0000.34,0000.21
2021-12-25 10:37:00,,0813.9,4.99,0.00,22.0,21.4,00.0,31.0,23.8,16.5,0000.0,0001.57,0000.33,0000.21
2021-12-25 10:38:00,,0814.0,5.00,0.00,22.0,21.4,00.0,31.0,23.7,16.6,0000.0,0001.72,0000.35,0000.21
2021-12-25 10:39:00,,0814.0,5.00,0.00,22.0,21.4,00.0,31.0,23.7,16.4,0000.0,0001.76,0000.38,0000.21
2021-12-25 10:40:00,,0814.1,4.99,0.00,21.9,21.3,00.0,31.0,23.6,16.5,0000.0,0001.78,0000.38,0000.21
2021-12-25 10:41:00,,0814.1,5.00,0.00,21.9,21.3,00.0,31.0,23.6,16.4,0000.0,0001.82,0000.39,0000.22
2021-12-25 10:42:00,,0814.0,5.01,0.00,21.9,21.3,00.0,31.0,23.6,16.2,0000.0,0001.79,0000.39,0000.22
2021-12-25 10:43:00,,0814.1,4.99,0.00,21.9,21.2,00.0,30.9,23.5,16.3,0000.0,0001.83,0000.40,0000.23
2021-12-25 10:44:00,,0814.1,4.99,0.00,21.8,21.1,00.0,30.9,23.5,16.2,0000.0,0001.97,0000.43,0000.23
2021-12-25 10:45:00,,0814.0,5.02,0.00,21.8,21.1,00.0,30.9,23.4,16.2,0000.0,0002.00,0000.43,0000.23
2021-12-25 10:46:00,,0814.0,4.99,0.00,21.9,21.6,00.0,30.9,23.6,16.0,0000.0,0002.02,0000.44,0000.23
2021-12-25 10:47:00,,0814.0,5.00,0.00,22.0,22.4,00.0,31.0,23.9,15.8,0000.0,0002.02,0000.44,0000.23
2021-12-25 10:48:00,,0814.3,5.00,0.00,22.2,22.8,00.0,31.0,24.2,15.6,0000.0,0002.33,0000.45,0000.24
2021-12-25 10:49:00,,0814.2,5.00,0.00,22.2,22.6,00.0,31.1,24.1,15.5,0000.0,0002.36,0000.43,0000.25
2021-12-25 10:50:00,,0814.1,5.00,0.00,22.2,22.4,00.0,31.1,24.1,15.5,0000.0,0003.11,0000.41,0000.24
2021-12-25 10:51:00,,0814.0,5.01,0.00,22.2,22.3,00.0,31.1,24.0,15.6,0000.0,0003.14,0000.42,0000.23
2021-12-25 10:52:00,,0814.1,4.99,0.00,22.2,22.1,00.0,31.1,24.0,15.6,0000.0,0003.69,0000.43,0000.23
2021-12-25 10:53:00,,0813.9,5.00,0.00,22.2,22.0,00.0,31.1,24.0,15.5,0000.0,0003.82,0000.43,0000.22
2021-12-25 10:54:00,,0813.9,5.00,0.00,22.2,21.9,00.0,31.1,24.0,15.4,0000.0,0004.10,0000.44,0000.21
2021-12-25 10:55:00,,0813.9,5.00,0.00,22.2,21.8,00.0,31.1,23.9,15.5,0000.0,0004.13,0000.44,0000.22
2021-12-25 10:56:00,,0813.9,5.00,0.00,22.2,21.8,00.0,31.1,23.9,15.3,0000.0,0004.12,0000.44,0000.22
2021-12-25 10:57:00,,0813.9,5.00,0.00,22.2,21.7,00.0,31.1,23.9,15.2,0000.0,0004.10,0000.43,0000.23
2021-12-25 10:58:00,,0813.9,5.00,0.00,22.1,21.6,00.0,31.1,23.8,15.2,0000.0,0004.09,0000.43,0000.22
2021-12-25 10:59:00,,0813.9,5.00,0.00,22.1,21.6,00.0,31.1,23.8,15.1,0000.0,0003.05,0000.41,0000.22
